{"data":{"norad_id":43481,"epoch":"2026-05-25T03:51:22.332096Z","epoch_age_seconds":65164,"freshness":"FRESH","line1":"1 43481U 18047F   26145.16067514  .00000080  00000+0  21677-4 0  9992","line2":"2 43481  86.3949  98.0553 0002500  92.6539 267.4943 14.34217888419175","mean_motion":14.34217888,"eccentricity":0.00025,"inclination_deg":86.3949,"raan_deg":98.0553,"arg_perigee_deg":92.6539,"mean_anomaly_deg":267.4943,"bstar":2.1677e-5,"rev_number":41917,"period_min":100.40315436367,"perigee_km":775.87774441014,"apogee_km":779.45564625781,"semimajor_km":7155.803695334,"source":"CELESTRAK","updated_at":"2026-05-25T13:38:14.810519Z"}}